Torna al catalogo

APSTAR 6C

AttivoComunicazioniGEO
NORAD 43450·PAYLOAD·🇨🇳 China

Lanciato May 3, 2018 da Xichang Satellite Launch Center

Loading…

TLE

AggiornatoSource: Space-Track

Epoca: Sep 14, 2026, 14:26 UTC

1 43450U 18041A   26257.60170779 -.00000325  00000-0  00000+0 0  9999
2 43450   0.0607 303.3822 0001692 282.2113 118.6166  1.00273378 30709

Traccia APSTAR 6C in tempo reale con AllMySat

Download on the App Store